Time,TemperatureF,DewpointF,PressureIn,WindDirection,WindDirectionDegrees,WindSpeedMPH,WindSpeedGustMPH,Humidity,HourlyPrecipIn,Conditions,Clouds,dailyrainin,SoftwareType,DateUTC
2013-03-01 00:02:00,45.1,35.4,30.15,NE,45,2.2,4.0,69,0.00,,,0.00,,2013-02-28 23:02:00,
2013-03-01 00:07:00,45.1,35.8,30.15,East,90,2.2,3.1,70,0.00,,,0.00,,2013-02-28 23:07:00,
2013-03-01 00:12:00,45.0,35.6,30.15,NE,45,3.1,4.0,70,0.00,,,0.00,,2013-02-28 23:12:00,
2013-03-01 00:17:00,44.8,35.4,30.15,ENE,67,2.6,2.6,70,0.00,,,0.00,,2013-02-28 23:17:00,
2013-03-01 00:22:00,44.6,35.2,30.15,NE,45,2.6,3.5,70,0.00,,,0.00,,2013-02-28 23:22:00,
2013-03-01 00:27:00,44.6,35.6,30.15,ENE,67,2.2,3.1,71,0.00,,,0.00,,2013-02-28 23:27:00,
2013-03-01 00:32:00,44.6,35.2,30.15,ENE,67,1.7,1.7,70,0.00,,,0.00,,2013-02-28 23:32:00,
2013-03-01 09:18:00,50.2,35.1,30.06,East,90,0.4,1.7,56,0.00,,,0.00,,2013-03-01 08:18:00,
2013-03-01 09:23:00,50.4,35.2,30.06,SE,135,0.4,0.8,56,0.00,,,0.00,,2013-03-01 08:23:00,
2013-03-01 09:28:00,50.7,35.1,30.06,SE,135,0.4,0.4,55,0.00,,,0.00,,2013-03-01 08:28:00,
2013-03-01 09:33:00,50.9,35.2,30.06,East,90,0.0,0.0,55,0.00,,,0.00,,2013-03-01 08:33:00,
2013-03-01 09:38:00,50.9,35.2,30.06,South,180,0.0,0.0,55,0.00,,,0.00,,2013-03-01 08:38:00,
2013-03-01 09:43:00,51.1,34.9,30.03,SE,135,0.0,0.0,54,0.00,,,0.00,,2013-03-01 08:43:00,
2013-03-01 09:48:00,51.1,34.9,30.03,NE,45,0.8,0.8,54,0.00,,,0.00,,2013-03-01 08:48:00,
2013-03-01 09:58:00,51.1,34.9,30.03,NE,45,0.0,0.0,54,0.00,,,0.00,,2013-03-01 08:58:00,
2013-03-01 10:03:00,50.9,34.3,30.03,NE,45,1.3,2.2,53,0.00,,,0.00,,2013-03-01 09:03:00,
2013-03-01 10:08:00,50.7,34.2,30.03,NNE,22,0.4,0.8,53,0.00,,,0.00,,2013-03-01 09:08:00,
2013-03-01 10:13:00,50.7,34.5,30.06,NE,45,0.0,0.0,54,0.00,,,0.00,,2013-03-01 09:13:00,
2013-03-01 10:18:00,50.7,34.5,30.06,North,0,0.0,0.0,54,0.00,,,0.00,,2013-03-01 09:18:00,
2013-03-01 10:23:00,51.1,35.4,30.03,North,0,0.0,0.0,55,0.00,,,0.00,,2013-03-01 09:23:00,
2013-03-01 10:28:00,50.9,35.2,30.03,NE,45,0.0,0.0,55,0.00,,,0.00,,2013-03-01 09:28:00,
2013-03-01 10:33:00,51.1,35.4,30.03,North,0,0.0,0.4,55,0.00,,,0.00,,2013-03-01 09:33:00,
2013-03-01 10:38:00,51.1,35.4,30.03,NE,45,0.0,0.8,55,0.00,,,0.00,,2013-03-01 09:38:00,
2013-03-01 10:43:00,51.1,35.4,30.06,NE,45,0.4,1.3,55,0.00,,,0.00,,2013-03-01 09:43:00,
2013-03-01 10:48:00,51.4,35.2,30.06,NE,45,1.3,1.3,54,0.00,,,0.00,,2013-03-01 09:48:00,
2013-03-01 10:53:00,51.8,35.6,30.06,NE,45,0.0,0.0,54,0.00,,,0.00,,2013-03-01 09:53:00,
2013-03-01 10:58:00,52.5,36.7,30.06,NE,45,0.0,0.0,55,0.00,,,0.00,,2013-03-01 09:58:00,
2013-03-01 11:03:00,52.7,36.0,30.03,NE,45,0.4,0.0,53,0.00,,,0.00,,2013-03-01 10:03:00,
2013-03-01 11:13:00,53.2,36.0,30.03,NE,45,0.4,0.4,52,0.00,,,0.00,,2013-03-01 10:13:00,
2013-03-01 11:18:00,53.4,35.6,30.03,NNE,22,1.3,4.0,51,0.00,,,0.00,,2013-03-01 10:18:00,
2013-03-01 11:28:00,53.8,35.4,30.06,NNE,22,1.7,2.6,50,0.00,,,0.00,,2013-03-01 10:28:00,
2013-03-01 11:33:00,53.8,35.4,30.06,NNE,22,1.3,1.3,50,0.00,,,0.00,,2013-03-01 10:33:00,
2013-03-01 11:38:00,53.8,35.4,30.06,NE,45,1.7,2.2,50,0.00,,,0.00,,2013-03-01 10:38:00,
2013-03-01 11:43:00,53.8,35.4,30.03,NNE,22,0.0,2.2,50,0.00,,,0.00,,2013-03-01 10:43:00,
2013-03-01 11:48:00,54.0,35.6,30.03,NE,45,0.8,0.0,50,0.00,,,0.00,,2013-03-01 10:48:00,
2013-03-01 11:53:00,53.8,35.4,30.06,NE,45,1.3,4.4,50,0.00,,,0.00,,2013-03-01 10:53:00,
2013-03-01 11:58:00,53.6,34.9,30.06,NE,45,2.2,2.2,49,0.00,,,0.00,,2013-03-01 10:58:00,
2013-03-01 12:03:00,53.6,34.9,30.03,NE,45,2.6,2.6,49,0.00,,,0.00,,2013-03-01 11:03:00,
2013-03-01 12:08:00,53.8,35.4,30.03,NNE,22,0.4,1.3,50,0.00,,,0.00,,2013-03-01 11:08:00,
2013-03-01 12:13:00,53.8,34.5,30.03,NE,45,2.2,2.2,48,0.00,,,0.00,,2013-03-01 11:13:00,
2013-03-01 12:18:00,53.8,34.5,30.03,NE,45,2.2,2.2,48,0.00,,,0.00,,2013-03-01 11:18:00,
2013-03-01 12:23:00,53.8,34.9,30.03,NE,45,0.8,0.0,49,0.00,,,0.00,,2013-03-01 11:23:00,
2013-03-01 12:28:00,54.0,34.5,30.03,NE,45,0.8,2.6,48,0.00,,,0.00,,2013-03-01 11:28:00,
2013-03-01 12:33:00,54.1,34.7,30.03,NE,45,0.8,2.6,48,0.00,,,0.00,,2013-03-01 11:33:00,
2013-03-01 12:38:00,54.1,34.7,30.00,NE,45,0.0,0.0,48,0.00,,,0.00,,2013-03-01 11:38:00,
2013-03-01 12:43:00,54.7,35.2,30.00,NE,45,0.0,0.0,48,0.00,,,0.00,,2013-03-01 11:43:00,
2013-03-01 12:48:00,54.7,35.2,30.00,WNW,292,0.8,1.7,48,0.00,,,0.00,,2013-03-01 11:48:00,
2013-03-01 12:53:00,54.7,36.3,30.00,WNW,292,0.8,1.3,50,0.00,,,0.00,,2013-03-01 11:53:00,
2013-03-01 13:03:00,54.3,36.5,30.00,SW,225,0.8,1.7,51,0.00,,,0.00,,2013-03-01 12:03:00,
2013-03-01 13:08:00,54.1,36.9,30.00,NW,315,0.8,2.2,52,0.00,,,0.00,,2013-03-01 12:08:00,
2013-03-01 13:13:00,54.0,37.0,30.00,SSW,202,0.4,0.4,53,0.00,,,0.00,,2013-03-01 12:13:00,
2013-03-01 13:18:00,54.0,37.0,30.03,SW,225,0.4,0.8,53,0.00,,,0.00,,2013-03-01 12:18:00,
2013-03-01 13:23:00,53.8,37.4,30.03,SW,225,0.4,0.0,54,0.00,,,0.00,,2013-03-01 12:23:00,
2013-03-01 13:28:00,53.6,37.2,30.03,NW,315,0.4,0.0,54,0.00,,,0.00,,2013-03-01 12:28:00,
2013-03-01 13:33:00,53.4,37.0,30.03,SW,225,0.0,0.8,54,0.00,,,0.00,,2013-03-01 12:33:00,
2013-03-01 13:38:00,53.4,37.6,30.00,WSW,247,0.4,0.8,55,0.00,,,0.00,,2013-03-01 12:38:00,
2013-03-01 13:43:00,53.1,37.2,30.00,SW,225,0.4,1.3,55,0.00,,,0.00,,2013-03-01 12:43:00,
2013-03-01 13:48:00,53.2,37.4,30.00,South,180,0.0,0.0,55,0.00,,,0.00,,2013-03-01 12:48:00,
2013-03-01 13:53:00,53.1,37.2,30.00,SW,225,0.8,1.3,55,0.00,,,0.00,,2013-03-01 12:53:00,
2013-03-01 13:58:00,53.1,37.8,30.03,NNW,337,0.0,0.0,56,0.00,,,0.00,,2013-03-01 12:58:00,
2013-03-01 14:03:00,53.4,37.9,30.03,NW,315,0.0,0.0,56,0.00,,,0.00,,2013-03-01 13:03:00,
2013-03-01 14:08:00,53.4,37.9,30.00,NW,315,0.0,0.0,56,0.00,,,0.00,,2013-03-01 13:08:00,
2013-03-01 14:13:00,53.8,38.3,30.00,NW,315,0.0,0.0,56,0.00,,,0.00,,2013-03-01 13:13:00,
2013-03-01 14:18:00,54.1,38.7,29.97,NW,315,0.0,0.8,56,0.00,,,0.00,,2013-03-01 13:18:00,
2013-03-01 14:23:00,54.3,38.8,29.97,NW,315,0.0,0.0,56,0.00,,,0.00,,2013-03-01 13:23:00,
2013-03-01 14:28:00,54.1,38.3,30.00,North,0,0.8,0.8,55,0.00,,,0.00,,2013-03-01 13:28:00,
2013-03-01 14:33:00,54.3,38.5,30.00,North,0,0.0,0.0,55,0.00,,,0.00,,2013-03-01 13:33:00,
2013-03-01 14:38:00,54.7,38.7,29.97,North,0,0.0,0.0,55,0.00,,,0.00,,2013-03-01 13:38:00,
2013-03-01 14:43:00,54.9,38.5,29.97,WNW,292,0.0,1.3,54,0.00,,,0.00,,2013-03-01 13:43:00,
2013-03-01 14:48:00,54.7,37.8,30.00,NE,45,0.4,0.4,53,0.00,,,0.00,,2013-03-01 13:48:00,
2013-03-01 14:53:00,54.5,36.7,30.00,NNE,22,2.2,3.5,51,0.00,,,0.00,,2013-03-01 13:53:00,
2013-03-01 14:58:00,54.0,36.1,30.00,NNE,22,2.2,2.2,51,0.00,,,0.00,,2013-03-01 13:58:00,
2013-03-01 15:03:00,53.8,35.4,30.00,NE,45,3.5,3.5,50,0.00,,,0.00,,2013-03-01 14:03:00,
2013-03-01 15:08:00,53.8,36.0,30.00,NE,45,1.3,1.7,51,0.00,,,0.00,,2013-03-01 14:08:00,
2013-03-01 15:13:00,53.8,36.5,30.00,NE,45,0.4,0.4,52,0.00,,,0.00,,2013-03-01 14:13:00,
2013-03-01 15:18:00,53.8,36.5,30.00,NE,45,1.7,2.2,52,0.00,,,0.00,,2013-03-01 14:18:00,
2013-03-01 15:23:00,54.0,36.7,30.00,NE,45,0.0,1.7,52,0.00,,,0.00,,2013-03-01 14:23:00,
2013-03-01 15:28:00,54.0,36.7,29.97,ENE,67,0.4,0.0,52,0.00,,,0.00,,2013-03-01 14:28:00,
2013-03-01 15:33:00,54.0,37.0,29.97,NE,45,0.4,2.6,53,0.00,,,0.00,,2013-03-01 14:33:00,
2013-03-01 15:38:00,54.0,37.0,29.97,NE,45,0.0,0.0,53,0.00,,,0.00,,2013-03-01 14:38:00,
2013-03-01 15:43:00,53.8,37.9,29.97,NE,45,0.0,0.0,55,0.00,,,0.00,,2013-03-01 14:43:00,
2013-03-01 15:48:00,53.8,37.9,29.97,NE,45,0.0,0.0,55,0.00,,,0.00,,2013-03-01 14:48:00,
2013-03-01 15:53:00,53.4,37.9,29.97,South,180,0.4,0.8,56,0.00,,,0.00,,2013-03-01 14:53:00,
2013-03-01 15:58:00,53.4,37.9,29.97,South,180,0.0,0.0,56,0.00,,,0.00,,2013-03-01 14:58:00,
2013-03-01 16:03:00,53.4,37.9,29.97,SE,135,0.4,1.3,56,0.00,,,0.00,,2013-03-01 15:03:00,
2013-03-01 16:08:00,53.4,37.9,29.97,SE,135,0.4,1.3,56,0.00,,,0.00,,2013-03-01 15:08:00,
2013-03-01 16:13:00,53.4,37.9,29.97,SSW,202,0.0,1.3,56,0.00,,,0.00,,2013-03-01 15:13:00,
2013-03-01 16:18:00,53.2,36.5,29.97,South,180,2.2,2.2,53,0.00,,,0.00,,2013-03-01 15:18:00,
2013-03-01 16:23:00,53.2,37.4,29.97,SE,135,0.0,0.0,55,0.00,,,0.00,,2013-03-01 15:23:00,
2013-03-01 16:28:00,53.1,37.8,29.97,South,180,0.4,2.2,56,0.00,,,0.00,,2013-03-01 15:28:00,
2013-03-01 16:33:00,52.9,37.6,29.97,SW,225,0.8,0.0,56,0.00,,,0.00,,2013-03-01 15:33:00,
2013-03-01 16:38:00,52.7,37.8,29.94,NW,315,0.4,0.0,57,0.00,,,0.00,,2013-03-01 15:38:00,
2013-03-01 16:43:00,52.7,37.8,29.94,NW,315,0.0,0.0,57,0.00,,,0.00,,2013-03-01 15:43:00,
2013-03-01 16:48:00,52.5,37.6,29.94,NW,315,0.0,0.0,57,0.00,,,0.00,,2013-03-01 15:48:00,
2013-03-01 16:53:00,52.5,37.6,29.94,SW,225,0.0,0.0,57,0.00,,,0.00,,2013-03-01 15:53:00,
2013-03-01 16:58:00,52.3,37.4,29.94,SW,225,0.4,0.0,57,0.00,,,0.00,,2013-03-01 15:58:00,
2013-03-01 17:03:00,52.3,37.4,29.94,SE,135,0.0,0.0,57,0.00,,,0.00,,2013-03-01 16:03:00,
2013-03-01 17:08:00,52.3,37.9,29.91,SE,135,0.4,1.3,58,0.00,,,0.00,,2013-03-01 16:08:00,
2013-03-01 17:13:00,52.3,37.9,29.91,WNW,292,0.4,2.6,58,0.00,,,0.00,,2013-03-01 16:13:00,
2013-03-01 17:18:00,52.2,37.8,29.94,West,270,0.0,0.0,58,0.00,,,0.00,,2013-03-01 16:18:00,
2013-03-01 17:23:00,52.0,37.9,29.94,WSW,247,0.0,0.0,59,0.00,,,0.00,,2013-03-01 16:23:00,
2013-03-01 17:28:00,52.0,37.6,29.94,WNW,292,0.4,0.8,58,0.00,,,0.00,,2013-03-01 16:28:00,
2013-03-01 17:33:00,51.8,37.8,29.94,WNW,292,0.0,0.0,59,0.00,,,0.00,,2013-03-01 16:33:00,
2013-03-01 17:38:00,51.6,37.6,29.94,NW,315,0.0,0.0,59,0.00,,,0.00,,2013-03-01 16:38:00,
2013-03-01 17:43:00,51.6,37.6,29.94,NW,315,0.4,0.4,59,0.00,,,0.00,,2013-03-01 16:43:00,
2013-03-01 17:48:00,51.4,37.4,29.91,NNE,22,0.8,1.3,59,0.00,,,0.00,,2013-03-01 16:48:00,
2013-03-01 17:53:00,51.1,37.6,29.91,North,0,0.0,0.0,60,0.00,,,0.00,,2013-03-01 16:53:00,
2013-03-01 17:58:00,50.9,37.4,29.91,North,0,0.0,0.0,60,0.00,,,0.00,,2013-03-01 16:58:00,
2013-03-01 18:03:00,50.9,37.4,29.91,NE,45,0.4,0.8,60,0.00,,,0.00,,2013-03-01 17:03:00,
2013-03-01 18:08:00,50.7,37.2,29.91,NE,45,0.4,0.0,60,0.00,,,0.00,,2013-03-01 17:08:00,
2013-03-01 18:13:00,50.7,37.2,29.91,NE,45,0.4,0.8,60,0.00,,,0.00,,2013-03-01 17:13:00,
2013-03-01 18:23:00,50.7,36.9,29.94,WNW,292,1.7,2.2,59,0.00,,,0.00,,2013-03-01 17:23:00,
2013-03-01 18:28:00,50.7,37.2,29.94,WNW,292,0.4,0.0,60,0.00,,,0.00,,2013-03-01 17:28:00,
2013-03-01 18:33:00,50.7,37.2,29.94,NW,315,0.0,0.0,60,0.00,,,0.00,,2013-03-01 17:33:00,
2013-03-01 18:38:00,50.4,36.9,29.94,SE,135,1.3,1.7,60,0.00,,,0.00,,2013-03-01 17:38:00,
2013-03-01 18:43:00,50.2,37.2,29.94,SE,135,0.4,0.0,61,0.00,,,0.00,,2013-03-01 17:43:00,
2013-03-01 18:48:00,50.2,37.2,29.94,SE,135,0.0,0.0,61,0.00,,,0.00,,2013-03-01 17:48:00,
2013-03-01 18:53:00,50.2,37.2,29.94,SE,135,0.0,0.0,61,0.00,,,0.00,,2013-03-01 17:53:00,
2013-03-01 18:58:00,50.2,37.2,29.94,SE,135,0.0,0.0,61,0.00,,,0.00,,2013-03-01 17:58:00,
2013-03-01 19:03:00,50.4,36.9,29.94,SE,135,0.0,0.0,60,0.00,,,0.00,,2013-03-01 18:03:00,
2013-03-01 19:08:00,50.4,37.4,29.91,NE,45,0.8,0.8,61,0.00,,,0.00,,2013-03-01 18:08:00,
2013-03-01 19:13:00,50.4,36.9,29.91,NE,45,0.8,0.0,60,0.00,,,0.00,,2013-03-01 18:13:00,
2013-03-01 19:18:00,50.4,36.9,29.91,NE,45,0.0,0.0,60,0.00,,,0.00,,2013-03-01 18:18:00,
2013-03-01 19:23:00,50.4,36.9,29.91,NE,45,0.0,0.0,60,0.00,,,0.00,,2013-03-01 18:23:00,
2013-03-01 19:28:00,50.4,36.9,29.94,NE,45,0.0,0.0,60,0.00,,,0.00,,2013-03-01 18:28:00,
2013-03-01 19:33:00,50.4,36.9,29.94,NE,45,0.0,0.0,60,0.00,,,0.00,,2013-03-01 18:33:00,
2013-03-01 19:38:00,50.2,36.7,29.91,NE,45,0.0,0.0,60,0.00,,,0.00,,2013-03-01 18:38:00,
2013-03-01 19:43:00,50.2,36.3,29.91,NE,45,0.0,0.0,59,0.00,,,0.00,,2013-03-01 18:43:00,
2013-03-01 19:48:00,50.2,36.3,29.91,NE,45,0.0,0.0,59,0.00,,,0.00,,2013-03-01 18:48:00,
2013-03-01 19:53:00,50.2,36.3,29.91,NE,45,0.0,0.0,59,0.00,,,0.00,,2013-03-01 18:53:00,
2013-03-01 19:58:00,50.2,36.3,29.91,NE,45,0.0,0.0,59,0.00,,,0.00,,2013-03-01 18:58:00,
2013-03-01 20:03:00,50.2,36.3,29.91,SE,135,0.4,1.3,59,0.00,,,0.00,,2013-03-01 19:03:00,
2013-03-01 20:13:00,50.4,36.5,29.91,ESE,112,0.4,3.1,59,0.00,,,0.00,,2013-03-01 19:13:00,
2013-03-01 20:18:00,50.2,36.3,29.91,ESE,112,0.8,1.7,59,0.00,,,0.00,,2013-03-01 19:18:00,
2013-03-01 20:23:00,49.8,36.3,29.91,East,90,0.8,1.7,60,0.00,,,0.00,,2013-03-01 19:23:00,
2013-03-01 20:28:00,49.8,36.0,29.88,NE,45,2.2,4.0,59,0.00,,,0.00,,2013-03-01 19:28:00,
2013-03-01 20:33:00,50.0,35.8,29.88,East,90,2.6,3.5,58,0.00,,,0.00,,2013-03-01 19:33:00,
2013-03-01 20:38:00,50.4,35.6,29.88,ENE,67,2.6,4.0,57,0.00,,,0.00,,2013-03-01 19:38:00,
2013-03-01 20:43:00,50.4,35.6,29.88,ENE,67,2.6,3.1,57,0.00,,,0.00,,2013-03-01 19:43:00,
2013-03-01 20:48:00,50.0,35.8,29.91,NNE,22,1.7,3.5,58,0.00,,,0.00,,2013-03-01 19:48:00,
2013-03-01 20:53:00,49.6,35.8,29.91,ENE,67,1.7,1.7,59,0.00,,,0.00,,2013-03-01 19:53:00,
2013-03-01 20:58:00,49.6,35.8,29.91,East,90,0.8,2.2,59,0.00,,,0.00,,2013-03-01 19:58:00,
2013-03-01 21:03:00,49.5,35.6,29.91,ESE,112,1.3,2.6,59,0.00,,,0.00,,2013-03-01 20:03:00,
2013-03-01 21:08:00,49.3,35.4,29.91,NE,45,0.4,1.7,59,0.00,,,0.00,,2013-03-01 20:08:00,
2013-03-01 21:13:00,49.5,35.6,29.91,ESE,112,0.8,0.0,59,0.00,,,0.00,,2013-03-01 20:13:00,
2013-03-01 21:18:00,49.6,35.8,29.88,East,90,0.8,4.0,59,0.00,,,0.00,,2013-03-01 20:18:00,
2013-03-01 21:23:00,50.2,35.4,29.88,East,90,2.2,3.1,57,0.00,,,0.00,,2013-03-01 20:23:00,
2013-03-01 21:28:00,50.2,35.4,29.88,SSW,202,0.8,2.2,57,0.00,,,0.00,,2013-03-01 20:28:00,
2013-03-01 21:33:00,49.6,35.4,29.88,SSW,202,0.0,0.0,58,0.00,,,0.00,,2013-03-01 20:33:00,
2013-03-01 21:38:00,49.5,35.6,29.88,ESE,112,0.4,0.4,59,0.00,,,0.00,,2013-03-01 20:38:00,
2013-03-01 21:43:00,49.8,35.6,29.88,East,90,1.7,2.6,58,0.00,,,0.00,,2013-03-01 20:43:00,
2013-03-01 21:48:00,50.2,35.4,29.91,East,90,1.7,1.7,57,0.00,,,0.00,,2013-03-01 20:48:00,
2013-03-01 21:53:00,50.4,35.6,29.91,East,90,1.7,1.7,57,0.00,,,0.00,,2013-03-01 20:53:00,
2013-03-01 21:58:00,50.4,35.2,29.91,East,90,2.2,2.2,56,0.00,,,0.00,,2013-03-01 20:58:00,
2013-03-01 22:03:00,50.4,35.2,29.91,NE,45,2.2,3.5,56,0.00,,,0.00,,2013-03-01 21:03:00,
2013-03-01 22:08:00,50.5,35.2,29.88,ENE,67,2.6,4.4,56,0.00,,,0.00,,2013-03-01 21:08:00,
2013-03-01 22:13:00,50.7,35.1,29.88,ESE,112,3.5,4.9,55,0.00,,,0.00,,2013-03-01 21:13:00,
2013-03-01 22:18:00,50.9,34.7,29.88,ENE,67,4.0,4.9,54,0.00,,,0.00,,2013-03-01 21:18:00,
2013-03-01 22:23:00,51.1,34.5,29.88,East,90,3.5,4.4,53,0.00,,,0.00,,2013-03-01 21:23:00,
2013-03-01 22:28:00,51.3,34.5,29.88,ENE,67,3.1,3.1,53,0.00,,,0.00,,2013-03-01 21:28:00,
2013-03-01 22:33:00,51.1,34.5,29.88,ESE,112,2.2,3.1,53,0.00,,,0.00,,2013-03-01 21:33:00,
2013-03-01 22:38:00,51.1,34.5,29.88,East,90,2.6,3.1,53,0.00,,,0.00,,2013-03-01 21:38:00,
2013-03-01 22:43:00,51.1,34.0,29.88,NE,45,3.1,4.4,52,0.00,,,0.00,,2013-03-01 21:43:00,
2013-03-01 22:48:00,51.1,34.5,29.88,ESE,112,0.8,0.8,53,0.00,,,0.00,,2013-03-01 21:48:00,
2013-03-01 22:53:00,50.7,34.2,29.88,SE,135,0.8,1.3,53,0.00,,,0.00,,2013-03-01 21:53:00,
2013-03-01 22:58:00,50.5,34.0,29.88,East,90,0.8,1.3,53,0.00,,,0.00,,2013-03-01 21:58:00,
2013-03-01 23:03:00,50.5,34.0,29.88,SE,135,0.0,0.8,53,0.00,,,0.00,,2013-03-01 22:03:00,
2013-03-01 23:08:00,50.7,34.2,29.88,SSE,157,1.3,2.2,53,0.00,,,0.00,,2013-03-01 22:08:00,
2013-03-01 23:13:00,50.9,34.3,29.88,SE,135,0.4,0.8,53,0.00,,,0.00,,2013-03-01 22:13:00,
2013-03-01 23:18:00,51.1,34.0,29.88,SE,135,1.3,2.6,52,0.00,,,0.00,,2013-03-01 22:18:00,
2013-03-01 23:23:00,51.1,34.0,29.88,SE,135,0.8,2.2,52,0.00,,,0.00,,2013-03-01 22:23:00,
2013-03-01 23:28:00,51.4,33.8,29.88,SSE,157,0.8,2.2,51,0.00,,,0.00,,2013-03-01 22:28:00,
2013-03-01 23:33:00,50.9,33.8,29.88,ESE,112,0.8,1.3,52,0.00,,,0.00,,2013-03-01 22:33:00,
2013-03-01 23:38:00,50.5,33.4,29.88,ESE,112,1.3,2.2,52,0.00,,,0.00,,2013-03-01 22:38:00,
2013-03-01 23:43:00,50.5,34.0,29.88,ESE,112,0.8,1.7,53,0.00,,,0.00,,2013-03-01 22:43:00,
2013-03-01 23:48:00,50.0,34.0,29.88,SE,135,2.2,3.5,54,0.00,,,0.00,,2013-03-01 22:48:00,
2013-03-01 23:53:00,50.0,34.3,29.88,ESE,112,1.3,1.7,55,0.00,,,0.00,,2013-03-01 22:53:00,
2013-03-01 23:58:00,49.8,34.2,29.88,ESE,112,2.2,3.1,55,0.00,,,0.00,,2013-03-01 22:58:00,